Location: Flotzheim
(48.8375°N, 10.8136°E)
Time: 17:31:31
(UTC+00:00)

ATLAS 2AS CENTAUR R/B - Pass Details

Date: 23 January 2021
Orbit: 947 x 1265 km, 63.7° (Epoch: 13 February)

Event Time Altitude Azimuth Distance (km) Brightness Sun altitude
Rises 17:47:39 0° 272° (W) 4,222 7.4 -17.4°
Reaches altitude 10° 17:50:56 10° 283° (WNW) 3,248 6.3 -18.0°
Maximum altitude 17:57:43 30° 343° (NNW) 2,050 4.2 -19.1°
Enters shadow 18:02:51 15° 35° (NE) 2,756 4.5 -19.9°
